Weather History for KCGE - May, 2014

Change the Weather History Date:

Thursday, May 1, 2014

  Actual Average (KESN) Record (KESN)
Temperature  
Mean Temperature 70 °F -  
Max Temperature 78 °F 74 °F 87 °F (1974)
Min Temperature 60 °F 49 °F 34 °F (1952)
Cooling Degree Days 5    
Growing Degree Days 20 (Base 50)    
Moisture  
Dew Point 61 °F    
Average Humidity 79    
Maximum Humidity 94    
Minimum Humidity 51    
Precipitation  
Precipitation 0.00 in - - ()
Sea Level Pressure  
Sea Level Pressure 29.79 in    
Wind  
Wind Speed 8 mph (South)    
Max Wind Speed 16 mph    
Max Gust Speed 24 mph    
Visibility 8 miles    
Events      
Averages and records for this station are not official NWS values.
T = Trace of Precipitation, MM = Missing Value Source: NWS Daily Summary

Daily Weather History Graph

Daily Weather History Graph

Search for Another Location

Airport or City:

Trip Planner

Search our weather history database for the weather conditions in past years. The results will help you decide how hot, cold, wet, or windy it might be!

Date:

Astronomy

May. 01, 2014 Rise Set
Actual Time 6:07 AM EDT 7:56 PM EDT
Civil Twilight 5:38 AM EDT 8:24 PM EDT
Nautical Twilight 5:03 AM EDT 8:59 PM EDT
Astronomical Twilight 4:26 AM EDT 9:36 PM EDT
Moon 7:53 AM EDT (5/1) 10:26 PM EDT (5/1)
Length of Visible Light 14h 46m
Length of Day
13h 49m
Waxing Crescent, 6% of the Moon is Illuminated
May 1
Waxing Crescent
May 6
First Quarter
May 14
Full
May 21
Last Quarter
May 28
New

Hourly Weather History & Observations

Time (EDT) Temp. Dew Point Humidity Pressure Visibility Wind Dir Wind Speed Gust Speed Precip Events Conditions
12:12 AM 64.4 °F 60.8 °F 88% 29.88 in 10.0 mi South 15.0 mph - N/A   Overcast
12:32 AM 64.4 °F 60.8 °F 88% 29.88 in 10.0 mi South 13.8 mph 24.2 mph N/A   Overcast
12:52 AM 64.4 °F 60.8 °F 88% 29.87 in 10.0 mi South 15.0 mph 21.9 mph N/A   Overcast
1:12 AM 64.4 °F 60.8 °F 88% 29.87 in 10.0 mi South 16.1 mph 23.0 mph N/A   Overcast
1:32 AM 64.4 °F 60.8 °F 88% 29.87 in 10.0 mi South 12.7 mph 21.9 mph N/A   Mostly Cloudy
1:52 AM 64.4 °F 60.8 °F 88% 29.86 in 10.0 mi South 10.4 mph - N/A   Overcast
2:12 AM 64.4 °F 60.8 °F 88% 29.85 in 10.0 mi South 12.7 mph 16.1 mph N/A   Overcast
2:32 AM 64.4 °F 60.8 °F 88% 29.85 in 7.0 mi South 9.2 mph - N/A   Overcast
2:52 AM 64.4 °F 60.8 °F 88% 29.85 in 7.0 mi South 10.4 mph 18.4 mph N/A   Overcast
3:12 AM 64.4 °F 62.6 °F 94% 29.84 in 10.0 mi South 10.4 mph 16.1 mph N/A   Overcast
3:33 AM 64.4 °F 62.6 °F 94% 29.83 in 10.0 mi South 8.1 mph - N/A   Overcast
3:53 AM 66.2 °F 62.6 °F 88% 29.84 in 10.0 mi South 12.7 mph 16.1 mph N/A   Overcast
4:13 AM 66.2 °F 62.6 °F 88% 29.83 in 10.0 mi South 6.9 mph - N/A   Overcast
4:33 AM 66.2 °F 62.6 °F 88% 29.83 in 10.0 mi South 8.1 mph - N/A   Overcast
5:13 AM 64.4 °F 62.6 °F 94% 29.84 in 7.0 mi South 3.5 mph - N/A   Overcast
5:33 AM 64.4 °F 62.6 °F 94% 29.84 in 7.0 mi SSW 3.5 mph - N/A   Overcast
5:53 AM 66.2 °F 62.6 °F 88% 29.84 in 7.0 mi SSW 6.9 mph - N/A   Overcast
6:13 AM 66.2 °F 62.6 °F 88% 29.84 in 5.0 mi West 3.5 mph - N/A   Overcast
6:33 AM 62.6 °F 60.8 °F 94% 29.85 in 10.0 mi WNW 5.8 mph - N/A   Overcast
7:13 AM 62.6 °F 59.0 °F 88% 29.84 in 10.0 mi Calm Calm - N/A   Overcast
7:33 AM 62.6 °F 59.0 °F 88% 29.85 in 7.0 mi Calm Calm - N/A   Mostly Cloudy
8:13 AM 62.6 °F 59.0 °F 88% 29.84 in 7.0 mi Calm Calm - N/A   Mostly Cloudy
8:33 AM 62.6 °F 60.8 °F 94% 29.84 in 7.0 mi Calm Calm - N/A   Overcast
8:53 AM 64.4 °F 62.6 °F 94% 29.84 in 3.0 mi SSE 4.6 mph - N/A   Overcast
9:13 AM 66.2 °F 62.6 °F 88% 29.83 in 4.0 mi SSE 3.5 mph - N/A   Overcast
9:33 AM 66.2 °F 62.6 °F 88% 29.83 in 3.0 mi South 3.5 mph - N/A   Overcast
10:13 AM 66.2 °F 62.6 °F 88% 29.84 in 4.0 mi Calm Calm - N/A   Overcast
10:53 AM 66.2 °F 62.6 °F 88% 29.83 in 4.0 mi Calm Calm - N/A   Mostly Cloudy
11:13 AM 66.2 °F 62.6 °F 88% 29.84 in 4.0 mi NNW 3.5 mph - N/A   Overcast
11:33 AM 64.4 °F 60.8 °F 88% 29.83 in 5.0 mi North 4.6 mph - N/A   Overcast
11:53 AM 66.2 °F 62.6 °F 88% 29.83 in 5.0 mi Calm Calm - N/A   Overcast
12:13 PM 66.2 °F 62.6 °F 88% 29.82 in 7.0 mi Calm Calm - N/A   Overcast
12:34 PM 69.8 °F 64.4 °F 83% 29.81 in 7.0 mi Calm Calm - N/A   Overcast
1:14 PM 71.6 °F 66.2 °F 83% 29.80 in 7.0 mi Calm Calm - N/A   Overcast
1:33 PM 71.6 °F 64.4 °F 78% 29.79 in 10.0 mi SE 3.5 mph - N/A   Overcast
1:54 PM 71.6 °F 64.4 °F 78% 29.79 in 10.0 mi Calm Calm - N/A   Overcast
2:14 PM 71.6 °F 62.6 °F 73% 29.78 in 10.0 mi South 4.6 mph - N/A   Mostly Cloudy
2:34 PM 71.6 °F 62.6 °F 73% 29.78 in 10.0 mi South 5.8 mph - N/A   Overcast
3:14 PM 77.0 °F 62.6 °F 61% 29.77 in 10.0 mi WSW 5.8 mph - N/A   Scattered Clouds
3:34 PM 77.0 °F 62.6 °F 61% 29.76 in 10.0 mi SW 9.2 mph - N/A   Clear
3:54 PM 77.0 °F 60.8 °F 57% 29.75 in 10.0 mi South 6.9 mph - N/A   Scattered Clouds
4:14 PM 77.0 °F 60.8 °F 57% 29.75 in 10.0 mi South 6.9 mph - N/A   Scattered Clouds
4:34 PM 77.0 °F 59.0 °F 54% 29.74 in 10.0 mi South 6.9 mph - N/A   Mostly Cloudy
5:14 PM 77.0 °F 59.0 °F 54% 29.73 in 10.0 mi SSW 5.8 mph - N/A   Overcast
5:34 PM 78.8 °F 59.0 °F 51% 29.72 in 7.0 mi SW 4.6 mph - N/A   Overcast
5:54 PM 78.8 °F 59.0 °F 51% 29.72 in 10.0 mi SW 5.8 mph - N/A   Overcast
6:14 PM 77.0 °F 60.8 °F 57% 29.72 in 10.0 mi South 6.9 mph - N/A   Overcast
6:34 PM 77.0 °F 60.8 °F 57% 29.72 in 10.0 mi South 6.9 mph - N/A   Overcast
6:54 PM 77.0 °F 60.8 °F 57% 29.71 in 10.0 mi South 8.1 mph - N/A   Mostly Cloudy
7:14 PM 77.0 °F 62.6 °F 61% 29.72 in 10.0 mi South 5.8 mph - N/A   Clear
7:34 PM 73.4 °F 60.8 °F 65% 29.72 in 10.0 mi South 5.8 mph - N/A   Clear
7:54 PM 71.6 °F 60.8 °F 69% 29.72 in 10.0 mi SSE 5.8 mph - N/A   Clear
8:14 PM 71.6 °F 62.6 °F 73% 29.73 in 10.0 mi SSE 4.6 mph - N/A   Clear
8:54 PM 69.8 °F 60.8 °F 73% 29.73 in 10.0 mi SSE 8.1 mph - N/A   Clear
9:15 PM 68.0 °F 60.8 °F 78% 29.72 in 10.0 mi SSE 4.6 mph - N/A   Clear
9:35 PM 66.2 °F 60.8 °F 83% 29.72 in 10.0 mi South 3.5 mph - N/A   Clear
9:55 PM 66.2 °F 60.8 °F 83% 29.72 in 10.0 mi South 3.5 mph - N/A   Clear
10:15 PM 66.2 °F 60.8 °F 83% 29.72 in 10.0 mi SW 4.6 mph - N/A   Clear
10:35 PM 66.2 °F 60.8 °F 83% 29.72 in 10.0 mi SSW 4.6 mph - N/A   Clear
10:55 PM 68.0 °F 60.8 °F 78% 29.72 in 10.0 mi NW 5.8 mph - N/A   Scattered Clouds
11:15 PM 69.8 °F 57.2 °F 64% 29.73 in 7.0 mi NNW 9.2 mph - N/A   Mostly Cloudy
11:35 PM 62.6 °F 55.4 °F 77% 29.75 in 7.0 mi Calm Calm - N/A   Mostly Cloudy
11:55 PM 60.8 °F 55.4 °F 82% 29.76 in 7.0 mi NNW 8.1 mph - N/A   Mostly Cloudy